Wind_Speed
28 31 33 36 38 40 41 42 43 43 43 43 43 42 41 40 40 39 39 39 39 39 38 37 35 34 33 31 30 29 28 27 26 25 24 23 22 22
26 29 31 34 36 38 40 41 43 44 43 43 43 43 43 43 41 40 40 40 40 40 39 38 37 36 35 33 32 31 30 29 28 27 26 25 24 24
25 27 29 32 34 36 39 40 42 43 43 43 44 44 44 43 42 42 41 41 41 40 39 39 39 38 37 35 34 33 32 31 30 29 28 28 27 26
25 26 27 30 32 35 37 39 41 42 42 42 44 45 45 44 43 43 42 42 41 40 40 40 40 39 38 37 36 34 33 32 31 30 30 30 29 28
23 25 26 28 30 32 35 37 39 41 42 42 43 45 45 45 44 43 43 42 43 42 41 40 40 39 39 39 37 36 35 33 33 32 32 31 31 30
21 22 24 26 28 30 32 35 37 39 41 41 42 43 44 44 45 44 44 43 42 42 41 40 39 39 39 39 38 37 36 35 34 33 33 32 32 31
18 20 22 23 25 27 29 32 34 37 39 40 41 43 44 44 44 44 45 44 44 42 41 41 41 40 40 39 39 38 37 37 36 35 35 34 33 33
16 17 19 20 22 24 26 29 32 34 35 37 39 40 41 42 43 44 44 44 44 43 43 41 42 42 40 39 39 38 38 39 39 38 37 36 35 33
15 14 15 17 19 20 22 25 27 30 32 34 36 37 38 39 41 43 43 43 42 42 43 43 42 42 41 41 41 41 40 40 39 38 38 37 36 33
16 14 12 13 14 16 18 20 23 25 27 30 33 35 36 37 38 40 42 43 42 42 42 42 42 42 42 42 40 40 41 41 40 39 38 36 34 31
17 14 12 11 11 12 14 16 19 22 24 25 28 32 35 36 37 38 40 41 41 40 40 41 42 42 41 41 40 39 40 40 38 37 36 34 33 31
18 15 13 11 9 9 10 13 15 18 20 22 24 28 32 34 36 37 38 39 40 40 40 40 40 40 40 39 38 38 38 37 37 36 35 33 31 30
18 16 14 12 10 8 8 9 11 14 17 19 21 24 27 30 32 34 36 37 37 37 38 39 39 39 39 38 37 37 36 36 36 36 34 32 30 29
19 17 15 13 11 9 7 7 8 10 13 16 19 21 24 26 28 30 33 35 36 36 36 36 36 36 37 37 37 36 36 36 35 34 32 30 29 28
19 18 16 14 13 11 9 8 7 9 11 13 16 19 21 23 25 27 30 32 33 34 34 34 34 34 34 34 35 36 36 35 34 33 31 30 28 28
19 18 17 15 13 12 10 9 8 8 9 10 12 15 18 20 22 24 27 30 31 32 32 32 33 32 32 32 33 34 34 34 33 32 30 29 29 28
19 19 17 16 14 13 11 10 9 9 10 10 12 14 16 18 19 21 24 27 30 31 32 32 33 33 33 32 32 32 32 31 30 30 29 28 27 26
20 19 18 17 15 14 12 12 11 11 11 11 12 13 14 16 18 19 21 24 27 29 31 30 31 32 32 31 31 31 30 30 29 28 27 26 26 25
20 19 19 18 17 15 14 13 13 12 12 12 12 12 13 14 15 17 19 21 23 25 27 28 28 28 29 30 29 30 29 29 28 27 26 25 25 26
22 21 20 19 18 17 16 15 14 14 13 13 13 13 13 14 13 14 16 18 21 22 24 24 25 26 27 27 27 28 28 27 26 25 26 25 25 25
24 23 22 21 20 19 18 17 16 16 15 14 14 14 14 14 14 14 15 17 19 20 20 22 24 24 25 25 25 25 25 25 25 25 25 25 25 24
28 27 25 24 23 22 21 20 19 18 17 16 15 15 14 14 15 15 15 16 19 20 21 22 23 24 24 24 24 24 25 25 25 24 24 24 24 24
33 32 30 29 27 26 25 23 22 21 20 19 18 17 16 16 16 16 17 18 19 20 21 22 23 24 24 24 24 24 25 25 24 24 24 24 24 25
Wind_Direction
256 252 248 246 244 243 242 241 239 239 239 239 240 239 238 239 238 239 240 240 241 242 243 244 245 246 247 249 250 252 255 258 261 263 265 268 272 276
260 255 252 248 246 244 242 241 240 239 239 238 238 239 238 238 239 239 239 240 242 241 242 243 244 245 246 247 249 251 254 257 259 261 263 266 269 274
265 259 255 252 248 245 243 242 240 239 239 238 237 237 238 238 239 238 238 240 242 243 244 243 244 244 245 247 249 251 254 256 258 259 262 264 268 273
268 261 256 253 250 247 244 242 241 240 239 238 237 237 238 238 238 237 238 239 241 243 243 244 243 243 244 246 248 251 253 255 257 259 262 264 268 271
274 265 259 255 252 249 246 243 241 240 239 238 238 237 238 238 238 238 238 240 241 241 242 243 243 242 243 245 246 250 252 254 257 259 262 264 266 269
279 271 263 258 254 250 247 243 242 240 238 238 238 237 238 239 239 239 240 241 240 240 241 241 241 242 244 245 245 249 251 254 257 259 261 263 265 266
288 277 268 262 257 253 250 246 243 240 239 238 238 238 238 239 240 240 241 241 240 241 242 242 242 243 244 245 246 248 251 253 256 259 262 262 264 266
303 287 278 270 263 258 252 247 244 241 240 238 238 239 239 240 240 241 241 241 241 242 242 243 243 243 244 245 244 247 250 252 256 259 261 263 265 265
321 304 289 279 270 262 256 249 244 242 240 238 237 238 239 239 239 239 240 240 241 242 242 244 243 243 244 243 244 246 249 252 255 258 260 261 263 263
339 326 309 292 279 268 259 250 245 242 240 238 237 236 236 237 238 237 238 240 240 241 243 244 242 243 245 245 245 246 249 252 256 257 258 258 258 258
353 346 332 314 295 278 262 253 248 244 241 240 239 238 236 236 237 238 237 237 237 239 240 242 243 243 244 245 245 246 249 251 253 254 254 255 255 257
2 358 351 339 320 298 274 260 253 247 245 243 240 238 236 235 236 237 237 237 237 239 241 242 242 242 242 244 247 247 246 246 248 250 251 253 253 254
4 3 359 354 346 327 301 277 263 254 249 246 244 241 238 237 238 237 236 237 237 238 239 240 240 240 241 243 244 245 245 246 247 248 249 251 250 251
1 1 360 357 353 344 328 301 279 266 258 253 247 244 243 242 240 239 236 236 237 236 237 237 238 240 241 241 243 245 244 246 246 248 247 245 246 247
356 356 355 354 351 346 338 324 303 283 272 263 253 249 247 246 243 240 237 235 236 235 235 234 236 238 239 240 243 245 245 245 244 243 244 242 245 247
349 350 350 348 344 339 334 326 312 294 284 273 260 254 252 249 244 240 238 235 234 233 231 233 235 237 236 239 241 241 241 241 239 238 240 242 245 244
341 342 343 343 341 335 328 321 316 305 292 282 273 265 258 253 246 242 239 236 233 232 231 231 232 233 235 236 236 236 236 237 236 236 239 241 241 241
333 334 334 334 334 330 324 318 314 309 300 291 283 275 264 256 249 243 239 236 233 232 230 230 230 230 232 233 233 232 233 234 233 234 235 238 239 240
322 325 326 326 325 322 319 314 310 306 301 294 287 280 274 261 252 245 241 236 232 230 231 231 229 228 231 232 232 231 232 232 231 232 232 234 234 236
311 312 314 316 316 314 311 309 305 302 299 294 287 283 275 265 258 250 242 236 233 232 232 230 228 228 229 228 229 229 229 229 230 231 232 233 233 234
302 302 302 303 304 304 302 300 299 296 293 291 286 280 275 267 260 253 245 237 234 233 230 228 225 225 226 227 228 229 229 230 231 231 230 230 231 232
295 294 293 293 293 293 293 292 290 288 286 285 281 275 271 264 257 254 247 238 232 231 229 229 226 226 227 227 228 228 229 228 228 229 229 229 230 231
292 290 288 286 285 284 283 282 281 279 278 276 273 268 264 259 254 250 246 242 236 232 230 229 228 228 228 226 226 227 228 228 228 229 228 228 229 230
Height
5760 5762 5765 5768 5772 5776 5780 5785 5790 5795 5800 5805 5810 5814 5819 5823 5828 5832 5836 5840 5844 5848 5851 5855 5858 5861 5863 5865 5867 5869 5870 5871 5872 5873 5874 5875 5875 5875
5752 5754 5756 5758 5761 5765 5769 5774 5778 5784 5789 5795 5800 5804 5809 5814 5818 5823 5827 5831 5835 5838 5842 5846 5850 5853 5856 5858 5860 5862 5863 5865 5866 5867 5868 5869 5869 5869
5744 5745 5747 5749 5752 5755 5759 5763 5768 5773 5779 5784 5789 5794 5798 5804 5809 5813 5818 5822 5826 5829 5833 5837 5841 5844 5847 5850 5852 5855 5856 5858 5859 5861 5862 5863 5863 5864
5736 5737 5738 5740 5742 5745 5749 5753 5757 5762 5767 5773 5778 5783 5788 5793 5798 5803 5808 5812 5817 5820 5824 5828 5832 5835 5839 5842 5845 5847 5849 5851 5852 5854 5855 5856 5857 5857
5728 5729 5730 5731 5733 5736 5739 5743 5747 5751 5756 5762 5767 5772 5777 5783 5788 5793 5798 5803 5807 5811 5815 5819 5822 5826 5830 5833 5836 5839 5841 5844 5845 5847 5848 5849 5850 5850
5722 5721 5722 5723 5725 5727 5730 5733 5737 5741 5746 5751 5756 5761 5766 5771 5777 5783 5788 5793 5797 5801 5805 5809 5813 5817 5821 5824 5828 5831 5833 5835 5837 5839 5840 5842 5843 5843
5716 5715 5715 5716 5717 5718 5721 5724 5727 5731 5735 5740 5746 5751 5756 5761 5767 5772 5777 5782 5786 5791 5796 5800 5804 5808 5811 5815 5818 5822 5825 5827 5829 5831 5832 5834 5835 5836
5710 5709 5709 5709 5710 5711 5713 5715 5718 5722 5726 5731 5736 5741 5746 5751 5756 5761 5767 5771 5777 5782 5786 5790 5794 5798 5802 5806 5809 5812 5815 5818 5820 5822 5824 5825 5827 5828
5707 5704 5703 5703 5703 5704 5705 5707 5710 5713 5717 5722 5727 5731 5736 5742 5746 5751 5755 5760 5766 5771 5775 5780 5784 5788 5792 5796 5799 5803 5806 5809 5811 5813 5815 5817 5818 5820
5704 5702 5700 5699 5698 5698 5699 5701 5703 5706 5710 5714 5718 5722 5727 5731 5736 5741 5746 5751 5755 5760 5765 5770 5774 5778 5782 5786 5789 5793 5796 5799 5802 5804 5806 5808 5810 5811
5704 5700 5698 5696 5695 5694 5695 5697 5698 5701 5703 5707 5710 5714 5718 5722 5726 5731 5735 5740 5745 5750 5755 5760 5764 5768 5772 5776 5779 5783 5786 5789 5792 5795 5797 5799 5801 5803
5705 5701 5698 5695 5693 5692 5692 5693 5694 5696 5698 5701 5704 5707 5710 5714 5718 5722 5726 5731 5735 5740 5745 5750 5754 5758 5762 5766 5770 5774 5776 5779 5782 5785 5788 5790 5793 5795
5706 5702 5699 5696 5693 5691 5690 5690 5691 5692 5694 5696 5698 5700 5703 5706 5709 5713 5717 5722 5726 5731 5736 5740 5744 5748 5753 5757 5761 5764 5767 5770 5773 5776 5779 5782 5784 5787
5708 5704 5700 5697 5694 5692 5690 5689 5689 5690 5690 5691 5693 5695 5697 5700 5702 5705 5709 5713 5717 5722 5726 5730 5734 5739 5743 5747 5751 5755 5758 5761 5764 5768 5770 5773 5776 5778
5708 5704 5701 5697 5694 5692 5690 5689 5688 5688 5687 5688 5689 5690 5692 5694 5696 5698 5701 5705 5709 5713 5717 5721 5726 5730 5734 5738 5742 5746 5749 5752 5756 5759 5762 5765 5768 5771
5708 5704 5701 5697 5694 5692 5690 5688 5687 5686 5685 5685 5685 5686 5687 5688 5690 5692 5694 5697 5701 5705 5709 5713 5718 5722 5726 5729 5734 5737 5741 5744 5748 5751 5754 5758 5760 5763
5707 5704 5700 5697 5694 5691 5689 5687 5686 5684 5683 5683 5683 5682 5683 5684 5684 5686 5688 5691 5694 5698 5702 5706 5710 5714 5718 5722 5725 5729 5733 5736 5740 5743 5747 5750 5753 5755
5706 5702 5699 5696 5693 5690 5688 5686 5684 5683 5681 5680 5680 5679 5679 5679 5680 5681 5682 5685 5688 5691 5694 5698 5702 5706 5710 5713 5717 5721 5725 5729 5732 5736 5739 5742 5745 5748
5703 5700 5697 5694 5691 5689 5686 5684 5682 5680 5679 5678 5677 5676 5676 5676 5676 5677 5678 5680 5682 5685 5688 5692 5695 5699 5703 5707 5710 5714 5718 5721 5725 5728 5732 5735 5738 5741
5699 5696 5694 5691 5688 5686 5684 5681 5679 5678 5676 5675 5674 5673 5673 5673 5673 5673 5675 5676 5678 5680 5683 5686 5689 5693 5697 5700 5704 5707 5711 5714 5718 5721 5724 5727 5731 5734
5694 5691 5689 5687 5684 5682 5680 5678 5676 5674 5673 5672 5671 5670 5670 5670 5670 5670 5671 5672 5674 5676 5679 5681 5684 5687 5691 5694 5698 5701 5704 5708 5711 5714 5718 5721 5724 5727
5686 5685 5683 5681 5679 5677 5675 5674 5672 5670 5669 5668 5667 5666 5666 5666 5666 5667 5668 5669 5671 5672 5675 5677 5680 5682 5686 5689 5692 5695 5699 5702 5705 5708 5711 5715 5718 5721
5678 5676 5675 5674 5672 5671 5669 5668 5666 5665 5664 5663 5663 5662 5662 5662 5662 5663 5664 5665 5666 5668 5670 5672 5674 5677 5680 5683 5687 5690 5693 5696 5699 5702 5705 5708 5711 5714